AV751 Weather Reports


time (UTC)temp
C
wind
direction
speed
KPH
gust
KPH
rain 1hr
cm
rain 24hr
cm
rain mn
cm
humidity
%
barometer
mb
20260507152504 16 112 3.2 8.0 0.00 0.00 0.00 45 994.8
20260507152004 16 122 4.8 12.9 0.00 0.00 0.00 44 995.1
20260507151504 16 115 4.8 12.9 0.00 0.00 0.00 42 995.1
20260507151004 17 100 3.2 8.0 0.00 0.00 0.00 42 995.1
20260507150504 16 124 4.8 11.3 0.00 0.00 0.00 42 995.4
20260507150005 16 142 4.8 11.3 0.00 0.00 0.00 42 995.3
20260507145504 15 160 3.2 6.4 0.00 0.00 0.00 43 995.4
20260507145004 15 170 3.2 6.4 0.00 0.00 0.00 43 995.5
20260507144504 15 161 3.2 6.4 0.00 0.00 0.00 43 995.5
20260507144218 15 157 3.2 6.4 0.00 0.00 0.00 43 995.4
20260507143504 15 142 1.6 6.4 0.00 0.00 0.00 44 995.3
20260507143004 15 163 3.2 6.4 0.00 0.00 0.00 43 995.5
20260507142504 15 166 1.6 8.0 0.00 0.00 0.00 44 995.4
20260507142004 15 147 0.0 8.0 0.00 0.00 0.00 43 995.4
20260507141504 15 134 3.2 6.4 0.00 0.00 0.00 44 995.7
20260507141004 15 135 3.2 6.4 0.00 0.00 0.00 43 995.6
20260507140504 15 126 3.2 8.0 0.00 0.00 0.00 44 995.5
20260507140005 15 143 3.2 8.0 0.00 0.00 0.00 44 995.6
20260507135504 15 144 3.2 6.4 0.00 0.00 0.00 44 995.5
20260507135004 15 136 4.8 9.7 0.00 0.00 0.00 43 995.7
20260507134504 15 136 3.2 9.7 0.00 0.00 0.00 43 995.7
20260507134004 15 136 6.4 11.3 0.00 0.00 0.00 43 995.7
20260507133504 15 135 1.6 11.3 0.00 0.00 0.00 43 995.5
20260507133004 15 142 4.8 9.7 0.00 0.00 0.00 43 995.7
20260507132504 15 144 6.4 12.9 0.00 0.00 0.00 43 995.8
20260507132004 15 141 4.8 12.9 0.00 0.00 0.00 43 995.7
20260507131504 16 137 9.7 12.9 0.00 0.00 0.00 42 995.6
20260507131004 16 140 4.8 12.9 0.00 0.00 0.00 43 995.7
20260507130504 16 146 4.8 11.3 0.00 0.00 0.00 43 995.6
20260507130217 16 142 6.4 12.9 0.00 0.00 0.00 43 995.6
20260507125504 16 126 4.8 12.9 0.00 0.00 0.00 41 995.6
20260507125004 17 128 3.2 12.9 0.00 0.00 0.00 42 995.8
20260507124504 16 133 6.4 12.9 0.00 0.00 0.00 43 995.6
20260507124004 16 136 3.2 9.7 0.00 0.00 0.00 44 995.8
20260507123717 16 137 4.8 9.7 0.00 0.00 0.00 44 995.6
20260507123004 15 134 3.2 11.3 0.00 0.00 0.00 45 995.9
20260507122504 15 137 1.6 12.9 0.00 0.00 0.00 44 995.9
20260507122004 15 122 3.2 12.9 0.00 0.00 0.00 45 995.9
20260507121504 15 142 3.2 12.9 0.00 0.00 0.00 47 996.0
20260507121004 15 150 3.2 12.9 0.00 0.00 0.00 47 995.9
20260507120504 15 137 4.8 12.9 0.00 0.00 0.00 47 995.9
20260507120005 15 130 3.2 12.9 0.00 0.00 0.00 45 996.0
20260507115716 15 123 4.8 12.9 0.00 0.00 0.00 44 995.9
20260507115004 16 110 3.2 12.9 0.00 0.00 0.00 43 996.2
20260507114504 16 107 4.8 12.9 0.00 0.00 0.00 43 996.1
20260507114004 16 127 1.6 11.3 0.00 0.00 0.00 45 996.1
20260507113504 16 143 8.0 11.3 0.00 0.00 0.00 48 996.4
20260507113004 16 147 4.8 11.3 0.00 0.00 0.00 50 996.3
20260507112504 15 145 4.8 11.3 0.00 0.00 0.00 48 996.4
20260507112004 15 144 4.8 12.9 0.00 0.00 0.00 51 996.3
20260507111506 15 127 3.2 12.9 0.00 0.00 0.00 50 996.4
20260507111004 15 98 3.2 11.3 0.00 0.00 0.00 52 996.6
20260507110504 15 123 4.8 11.3 0.00 0.00 0.00 52 996.2
20260507110005 15 118 4.8 12.9 0.00 0.00 0.00 52 996.3
20260507105504 14 112 6.4 12.9 0.00 0.00 0.00 52 996.5
20260507105004 14 131 3.2 12.9 0.00 0.00 0.00 51 996.5
20260507104504 15 136 8.0 12.9 0.00 0.00 0.00 51 996.5
20260507104004 15 142 3.2 9.7 0.00 0.00 0.00 52 996.6
20260507103504 15 141 4.8 9.7 0.00 0.00 0.00 52 996.6
20260507103004 15 107 6.4 9.7 0.00 0.00 0.00 53 996.6
20260507102504 15 118 4.8 9.7 0.00 0.00 0.00 54 996.8
20260507102218 15 125 3.2 9.7 0.00 0.00 0.00 55 996.8
20260507101504 14 145 4.8 9.7 0.00 0.00 0.00 55 996.8
20260507101004 13 146 6.4 9.7 0.00 0.00 0.00 56 996.7
20260507100504 13 127 3.2 12.9 0.00 0.00 0.00 57 996.7
20260507100005 13 108 6.4 12.9 0.00 0.00 0.00 58 996.9
20260507095717 13 90 4.8 6.4 0.00 0.00 0.00 59 996.8
20260507095004 13 142 1.6 9.7 0.00 0.00 0.00 61 996.8
20260507094504 13 137 6.4 9.7 0.00 0.00 0.00 61 996.8
20260507094005 13 139 4.8 9.7 0.00 0.00 0.00 60 996.9
20260507093504 13 142 4.8 12.9 0.00 0.00 0.00 60 997.0
20260507093004 13 147 3.2 12.9 0.00 0.00 0.00 61 996.9
20260507092504 12 127 6.4 11.3 0.00 0.00 0.00 62 997.0
20260507092004 12 117 6.4 11.3 0.00 0.00 0.00 63 997.0
20260507091504 12 132 1.6 8.0 0.00 0.00 0.00 63 996.9
20260507091004 12 140 6.4 8.0 0.00 0.00 0.00 63 997.0
20260507090717 12 142 3.2 8.0 0.00 0.00 0.00 64 997.0
20260507090005 12 133 1.6 9.7 0.00 0.00 0.00 69 997.2
20260507085718 12 137 6.4 9.7 0.00 0.00 0.00 68 997.2
20260507085004 11 137 6.4 12.9 0.00 0.00 0.00 67 997.2
20260507084504 12 133 3.2 6.4 0.00 0.00 0.00 70 997.1
20260507084004 11 128 6.4 9.7 0.00 0.00 0.00 70 997.2
20260507083504 11 134 6.4 12.9 0.00 0.00 0.00 71 997.3
20260507083005 11 145 6.4 12.9 0.00 0.00 0.00 71 997.2
20260507082504 11 144 8.0 12.9 0.00 0.00 0.00 71 997.2
20260507082004 11 143 4.8 12.9 0.00 0.00 0.00 71 997.2
20260507081504 11 141 6.4 12.9 0.00 0.00 0.00 71 997.2
20260507081004 10 141 3.2 12.9 0.00 0.00 0.00 71 997.3
20260507080504 11 139 3.2 6.4 0.00 0.00 0.00 72 997.3
20260507080005 10 126 4.8 6.4 0.00 0.00 0.00 72 997.2
20260507075504 10 142 4.8 8.0 0.00 0.00 0.00 73 997.4
20260507075004 10 145 4.8 8.0 0.00 0.00 0.00 73 997.3
20260507074504 10 134 4.8 8.0 0.00 0.00 0.00 74 997.4
20260507074004 10 135 3.2 6.4 0.00 0.00 0.00 75 997.3
20260507073504 10 133 0.0 6.4 0.00 0.00 0.00 75 997.4
20260507073213 9 133 3.2 6.4 0.00 0.00 0.00 75 997.2
20260507072504 10 145 3.2 6.4 0.00 0.00 0.00 77 997.3
20260507072004 9 163 1.6 4.8 0.00 0.00 0.00 77 997.3
20260507071717 9 174 3.2 4.8 0.00 0.00 0.00 77 997.4
20260507071004 8 149 1.6 4.8 0.00 0.00 0.00 77 997.3
20260507070504 8 139 3.2 4.8 0.00 0.00 0.00 77 997.3
20260507070009 8 135 3.2 3.2 0.00 0.00 0.00 80 997.3
20260507065504 8 135 3.2 3.2 0.00 0.00 0.00 81 997.3
20260507065004 8 143 1.6 3.2 0.00 0.00 0.00 83 997.3
20260507064504 8 141 0.0 3.2 0.00 0.00 0.00 87 997.1
20260507064004 8 135 1.6 3.2 0.00 0.00 0.00 91 997.3
20260507063504 8 135 0.0 3.2 0.00 0.00 0.00 93 997.2
20260507063004 8 135 0.0 3.2 0.00 0.00 0.00 94 997.3
20260507062504 7 135 1.6 3.2 0.00 0.00 0.00 98 997.1
20260507062004 6 135 0.0 3.2 0.00 0.00 0.00 97 997.3
20260507061504 6 135 0.0 1.6 0.00 0.00 0.00 97 997.4
20260507061216 6 135 0.0 3.2 0.00 0.00 0.00 97 997.3
20260507060504 6 144 1.6 3.2 0.00 0.00 0.00 96 997.2
20260507060217 6 157 0.0 1.6 0.00 0.00 0.00 96 997.2
20260507055504 5 0 0.0 0.0 0.00 0.00 0.00 96 997.2
20260507055004 5 0 0.0 0.0 0.00 0.00 0.00 96 997.2
20260507054504 5 0 0.0 0.0 0.00 0.00 0.00 95 997.3
20260507054004 5 0 0.0 0.0 0.00 0.00 0.00 95 997.1
20260507053504 5 0 0.0 0.0 0.00 0.00 0.00 95 997.2
20260507053005 5 0 0.0 0.0 0.00 0.00 0.00 95 997.2
20260507052718 5 0 0.0 0.0 0.00 0.00 0.00 94 997.2
20260507052215 4 0 0.0 0.0 0.00 0.00 0.00 94 997.2
20260507051504 4 0 0.0 0.0 0.00 0.00 0.00 94 997.1
20260507051004 4 0 0.0 0.0 0.00 0.00 0.00 94 997.1
20260507050504 4 0 0.0 0.0 0.00 0.00 0.00 93 997.3
20260507050005 4 0 0.0 0.0 0.00 0.00 0.00 93 997.2
20260507045504 4 0 0.0 0.0 0.00 0.00 0.00 93 997.4
20260507045213 4 0 0.0 0.0 0.00 0.00 0.00 93 997.3
20260507044504 4 0 0.0 0.0 0.00 0.00 0.00 93 997.2
20260507044004 4 0 0.0 0.0 0.00 0.00 0.00 93 997.3
20260507043504 4 0 0.0 0.0 0.00 0.00 0.00 92 997.1
20260507043215 4 0 0.0 0.0 0.00 0.00 0.00 92 997.2
20260507042721 4 0 0.0 0.0 0.00 0.00 0.00 92 997.1
20260507042004 3 315 0.0 4.8 0.00 0.00 0.00 92 997.3
20260507041504 3 315 0.0 4.8 0.00 0.00 0.00 91 997.2
20260507041217 4 315 1.6 4.8 0.00 0.00 0.00 91 997.2
20260507040504 4 0 0.0 0.0 0.00 0.00 0.00 91 997.3
20260507040004 3 0 0.0 0.0 0.00 0.00 0.00 91 997.0
20260507035504 3 0 0.0 0.0 0.00 0.00 0.00 90 997.3
20260507035214 3 0 0.0 0.0 0.00 0.00 0.00 90 997.1
20260507034717 4 0 0.0 0.0 0.00 0.00 0.00 90 997.3
20260507034004 4 0 0.0 0.0 0.00 0.00 0.00 90 997.2
20260507033718 4 0 0.0 0.0 0.00 0.00 0.00 90 997.1
20260507033004 4 0 0.0 0.0 0.00 0.00 0.00 90 997.3
20260507032504 4 0 0.0 0.0 0.00 0.00 0.00 90 997.1
20260507032004 4 0 0.0 0.0 0.00 0.00 0.00 89 997.4
20260507031504 5 0 0.0 0.0 0.00 0.00 0.00 89 997.2
20260507031218 5 0 0.0 0.0 0.00 0.00 0.00 89 997.2
20260507030504 5 0 0.0 0.0 0.00 0.00 0.00 88 997.4
20260507030004 5 0 0.0 0.0 0.00 0.00 0.00 88 997.2
20260507025504 5 0 0.0 0.0 0.00 0.00 0.00 88 996.9
20260507025004 5 0 0.0 0.0 0.00 0.00 0.00 88 997.1
20260507024504 5 0 0.0 0.0 0.00 0.00 0.00 88 997.3
20260507024004 5 0 0.0 0.0 0.00 0.00 0.00 89 997.2
20260507023504 5 360 0.0 1.6 0.00 0.00 0.00 89 997.2
20260507023004 6 360 0.0 1.6 0.00 0.00 0.00 89 997.0
20260507022504 6 360 0.0 3.2 0.00 0.00 0.00 89 997.0
20260507022004 6 4 0.0 3.2 0.00 0.00 0.00 89 997.0
20260507021715 6 6 1.6 3.2 0.00 0.00 0.00 89 996.9
20260507021004 6 360 1.6 3.2 0.00 0.00 0.00 90 997.0
20260507020504 6 360 0.0 1.6 0.00 0.00 0.00 89 997.0
20260507020004 6 360 0.0 1.6 0.00 0.00 0.00 89 997.3
20260507015504 6 360 0.0 1.6 0.00 0.00 0.00 89 997.3
20260507015004 6 360 0.0 1.6 0.00 0.00 0.00 89 997.3
20260507014504 6 360 0.0 1.6 0.00 0.00 0.00 89 997.2
20260507014004 6 360 0.0 1.6 0.00 0.00 0.00 89 997.2
20260507013714 6 360 0.0 1.6 0.00 0.00 0.00 89 997.4
20260507013004 6 360 0.0 3.2 0.00 0.00 0.00 89 997.2
20260507012504 6 360 0.0 3.2 0.00 0.00 0.00 90 997.4
20260507012004 6 360 0.0 1.6 0.00 0.00 0.00 90 997.4
20260507011716 6 360 0.0 1.6 0.00 0.00 0.00 90 997.4
20260507011004 6 0 0.0 0.0 0.00 0.00 0.00 90 997.2
20260507010504 6 0 0.0 0.0 0.00 0.00 0.00 89 997.4
20260507010005 6 0 0.0 0.0 0.00 0.00 0.00 89 997.3
20260507005504 6 0 0.0 0.0 0.00 0.00 0.00 89 997.6
20260507005004 6 0 0.0 0.0 0.00 0.00 0.00 89 997.4
20260507004504 6 0 0.0 0.0 0.00 0.00 0.00 88 997.4
20260507004217 6 0 0.0 0.0 0.00 0.00 0.00 88 997.3
20260507003504 6 0 0.0 0.0 0.00 0.00 0.00 89 997.4
20260507003218 6 0 0.0 0.0 0.00 0.00 0.00 89 997.4
20260507002504 6 0 0.0 0.0 0.00 0.00 0.00 90 997.4
20260507002004 6 0 0.0 0.0 0.00 0.00 0.00 90 997.2
20260507001504 6 0 0.0 0.0 0.00 0.00 0.00 90 997.3
20260507001004 6 0 0.0 0.0 0.00 0.00 0.00 90 997.4
20260507000504 6 0 0.0 0.0 0.00 0.00 0.00 90 997.4
20260507000004 6 0 0.0 0.0 0.00 0.00 0.00 91 997.7
20260506235504 6 360 0.0 3.2 0.00 0.00 0.00 91 997.5
20260506235004 6 360 0.0 3.2 0.00 0.00 0.00 91 997.3
20260506234504 6 360 0.0 1.6 0.00 0.00 0.00 91 997.5
20260506234004 6 360 0.0 1.6 0.00 0.00 0.00 91 997.4
20260506233715 6 0 0.0 0.0 0.00 0.00 0.00 91 997.4
20260506233004 6 360 0.0 1.6 0.00 0.00 0.00 91 997.6
20260506232504 6 360 0.0 3.2 0.00 0.00 0.00 91 997.6
20260506232214 6 360 0.0 3.2 0.00 0.00 0.00 90 997.4
20260506231717 5 0 0.0 0.0 0.00 0.00 0.00 90 997.4
20260506231004 5 0 0.0 0.0 0.00 0.00 0.00 89 997.5
20260506230504 5 0 0.0 0.0 0.00 0.00 0.00 89 997.7
20260506230005 5 0 0.0 0.0 0.00 0.00 0.00 88 997.8
20260506225504 5 0 0.0 0.0 0.00 0.00 0.00 88 997.7
20260506225217 5 0 0.0 0.0 0.00 0.00 0.00 88 997.6
20260506224715 5 0 0.0 0.0 0.00 0.00 0.00 87 997.7
20260506224218 5 0 0.0 0.0 0.00 0.00 0.00 87 997.5
20260506223504 5 0 0.0 0.0 0.00 0.00 0.00 86 997.6
20260506223004 5 225 0.0 1.6 0.00 0.00 0.00 85 997.6
20260506222504 6 225 0.0 1.6 0.00 0.00 0.00 85 997.4
20260506222004 6 0 0.0 0.0 0.00 0.00 0.00 84 997.5
20260506221718 6 0 0.0 0.0 0.00 0.00 0.00 84 997.5
20260506221004 6 0 0.0 0.0 0.00 0.00 0.00 84 997.2
20260506220504 6 0 0.0 0.0 0.00 0.00 0.00 84 997.3
20260506220217 6 0 0.0 0.0 0.00 0.00 0.00 84 997.2
20260506215504 6 19 0.0 3.2 0.00 0.00 0.00 84 997.2
20260506215005 7 13 1.6 3.2 0.00 0.00 0.00 84 997.2
20260506214504 7 36 1.6 3.2 0.00 0.00 0.00 83 997.2
20260506214004 7 41 1.6 4.8 0.00 0.00 0.00 83 997.0
20260506213717 7 59 1.6 4.8 0.00 0.00 0.00 83 997.0
20260506213004 7 50 1.6 4.8 0.00 0.00 0.00 83 996.9
20260506212504 7 31 3.2 4.8 0.00 0.00 0.00 77 997.0
20260506212004 7 20 1.6 4.8 0.00 0.00 0.00 76 996.8
20260506211504 7 54 0.0 4.8 0.00 0.00 0.00 76 996.9
20260506211004 7 84 3.2 4.8 0.00 0.00 0.00 76 996.7
20260506210504 7 90 1.6 8.0 0.00 0.00 0.00 75 996.8
20260506210218 7 96 1.6 8.0 0.00 0.00 0.00 75 996.6
20260506205504 8 95 4.8 6.4 0.00 0.00 0.00 75 996.6
20260506205004 8 92 3.2 9.7 0.00 0.00 0.00 74 996.4
20260506204504 8 60 6.4 9.7 0.00 0.00 0.00 74 996.4
20260506204004 8 58 3.2 6.4 0.00 0.00 0.00 74 996.6
20260506203717 8 72 3.2 6.4 0.00 0.00 0.00 73 996.5
20260506203215 8 89 3.2 6.4 0.00 0.00 0.00 73 996.4
20260506202504 8 69 4.8 6.4 0.00 0.00 0.00 72 996.3
20260506202458 8 69 4.8 6.4 0.00 0.00 0.00 72 996.3
20260506202445 8 68 4.8 6.4 0.00 0.00 0.00 72 996.3
20260506200504 8 84 4.8 8.0 0.00 0.00 0.00 72 996.3
20260506200004 8 62 3.2 8.0 0.00 0.00 0.00 72 996.3
20260506195504 9 66 3.2 6.4 0.00 0.00 0.00 71 996.2
20260506195004 9 79 3.2 6.4 0.00 0.00 0.00 71 996.0
20260506194717 9 62 3.2 6.4 0.00 0.00 0.00 71 996.1
20260506194004 9 48 3.2 6.4 0.00 0.00 0.00 71 996.0
20260506193504 9 78 3.2 9.7 0.00 0.00 0.00 71 996.2
20260506193004 9 90 3.2 9.7 0.00 0.00 0.00 70 996.0
20260506192504 9 55 4.8 6.4 0.00 0.00 0.00 70 995.9
20260506192217 9 59 3.2 8.0 0.00 0.00 0.00 70 996.0
20260506191715 10 65 3.2 8.0 0.00 0.00 0.00 70 995.9
20260506191004 10 87 6.4 8.0 0.00 0.00 0.00 70 996.0
20260506190504 10 77 1.6 6.4 0.00 0.00 0.00 70 996.0
20260506190214 10 102 1.6 9.7 0.00 0.00 0.00 70 995.7
20260506185504 10 104 1.6 9.7 0.00 0.00 0.00 70 995.7
20260506185004 10 80 4.8 9.7 0.00 0.00 0.00 70 996.0
20260506184718 10 86 3.2 9.7 0.00 0.00 0.00 70 995.9
20260506184004 10 81 3.2 6.4 0.00 0.00 0.00 69 995.8
20260506183713 10 55 3.2 8.0 0.00 0.00 0.00 69 995.8
20260506183005 10 48 3.2 8.0 0.00 0.00 0.00 68 995.8
20260506182504 10 59 3.2 6.4 0.00 0.00 0.00 68 995.9
20260506182004 10 68 3.2 6.4 0.00 0.00 0.00 68 995.6
20260506181504 10 56 1.6 11.3 0.00 0.00 0.00 67 995.9
20260506181004 10 53 4.8 11.3 0.00 0.00 0.00 67 995.7
20260506180716 10 49 4.8 11.3 0.00 0.00 0.00 67 995.6
20260506180214 10 69 3.2 8.0 0.00 0.00 0.00 67 995.8
20260506175504 11 64 3.2 8.0 0.00 0.00 0.00 67 995.6
20260506175004 11 79 3.2 8.0 0.00 0.00 0.00 66 995.3
20260506174504 11 70 3.2 8.0 0.00 0.00 0.00 66 995.4
20260506174004 11 37 3.2 11.3 0.00 0.00 0.00 65 995.5
20260506173504 11 62 6.4 11.3 0.00 0.00 0.00 64 995.3
20260506173004 11 91 3.2 8.0 0.00 0.00 0.00 63 995.4
20260506172715 11 83 3.2 6.4 0.00 0.00 0.00 63 995.4
20260506172004 11 59 3.2 11.3 0.00 0.00 0.00 62 995.3
20260506171504 11 83 6.4 11.3 0.00 0.00 0.00 62 995.0
20260506171004 11 83 6.4 11.3 0.00 0.00 0.00 62 995.1
20260506170504 11 64 3.2 9.7 0.00 0.00 0.00 62 995.3
20260506170004 11 37 4.8 9.7 0.00 0.00 0.00 62 995.0
20260506165718 11 41 3.2 6.4 0.00 0.00 0.00 62 995.0
20260506165004 11 73 3.2 6.4 0.00 0.00 0.00 61 995.1
20260506164714 12 69 3.2 6.4 0.00 0.00 0.00 61 995.1
20260506164004 11 47 1.6 8.0 0.00 0.00 0.00 61 994.9
20260506163504 11 42 3.2 9.7 0.00 0.00 0.00 60 995.1
20260506163004 11 48 6.4 11.3 0.00 0.00 0.00 61 994.9
20260506162504 11 62 3.2 11.3 0.00 0.00 0.00 61 994.9
20260506162004 11 61 6.4 11.3 0.00 0.00 0.00 60 995.0
20260506161504 12 43 6.4 11.3 0.00 0.00 0.00 61 995.0
20260506161215 12 55 3.2 12.9 0.00 0.00 0.00 61 995.0
20260506160504 11 69 4.8 12.9 0.00 0.00 0.00 61 994.9
20260506160004 12 46 6.4 11.3 0.00 0.00 0.00 60 994.9
20260506155504 12 39 4.8 8.0 0.00 0.00 0.00 61 995.0
20260506155004 12 53 4.8 14.5 0.00 0.00 0.00 61 994.9
20260506154504 11 65 6.4 14.5 0.00 0.00 0.00 61 994.8
20260506154004 11 66 6.4 11.3 0.00 0.00 0.00 61 994.9
20260506153504 12 54 6.4 11.3 0.00 0.00 0.00 60 994.9
20260506153004 12 43 6.4 12.9 0.00 0.00 0.00 60 994.9